This demonstration page uses our WeatherBlox Daily Observations layout. Learn more.

Left ArrowRight Arrow

Hourly Observations for March 17, 2015

Temp ( °F °C ) Dew Point ( °F °C ) Humidity (%) Winds ( mph kmh ) Pressure ( in mb ) Visibility ( mi km ) Precip ( " mm )
12:16 am 00:16 Clear 61 16 41 5 48 48 SW 12 19 29.88 1012 10 16 N/A
12:35 am 00:35 Clear 61 16 41 5 48 48 WSW 14 22 29.88 1012 10 16 N/A
12:56 am 00:56 Clear 61 16 43 6 52 52 WSW 14 22 29.88 1012 10 16 N/A
1:16 am 01:16 Clear 61 16 43 6 52 52 WSW 15 24 29.88 1012 10 16 N/A
1:35 am 01:35 Clear 61 16 43 6 52 52 WSW 16 26 29.88 1012 10 16 N/A
1:56 am 01:56 Clear 61 16 45 7 55 55 WSW 17 28 29.85 1011 10 16 N/A
2:16 am 02:16 Clear 59 15 45 7 59 59 WSW 15 24 29.85 1011 10 16 N/A
2:35 am 02:35 Clear 59 15 45 7 59 59 WSW 16 26 29.85 1011 10 16 N/A
2:56 am 02:56 Clear 59 15 45 7 59 59 WSW 17 28 29.85 1011 10 16 N/A
3:15 am 03:15 Clear 59 15 46 8 63 63 WSW 16 26 29.85 1011 10 16 N/A
3:35 am 03:35 Clear 59 15 46 8 63 63 WSW 16 26 29.85 1011 10 16 N/A
3:56 am 03:56 Clear 57 14 46 8 67 67 W 12 19 29.85 1011 10 16 N/A
4:15 am 04:15 Clear 55 13 46 8 72 72 W 10 17 29.88 1012 10 16 N/A
4:36 am 04:36 Clear 54 12 48 9 82 82 WNW 9 15 29.88 1012 10 16 N/A
4:56 am 04:56 Partly Cloudy 55 13 46 8 72 72 NW 12 19 29.88 1012 10 16 N/A
5:15 am 05:15 Clear 54 12 43 6 67 67 NNW 15 24 29.91 1013 10 16 N/A
5:36 am 05:36 Clear 50 10 34 1 54 54 NNW 16 26 29.94 1014 10 16 N/A
5:56 am 05:56 Clear 48 9 32 undefined 54 54 N 15 24 29.94 1014 10 16 N/A
6:15 am 06:15 Clear 48 9 30 -1 50 50 N 23 37 29.97 1015 10 16 N/A
6:36 am 06:36 Clear 46 8 30 -1 53 53 N 20 31 30.00 1016 10 16 N/A
6:55 am 06:55 Clear 45 7 30 -1 57 57 N 17 28 30.00 1016 10 16 N/A
7:16 am 07:16 Clear 43 6 32 undefined 66 66 N 17 28 30.03 1017 10 16 N/A
7:36 am 07:36 Clear 43 6 32 undefined 66 66 N 17 28 30.06 1018 10 16 N/A
7:55 am 07:55 Sunny 43 6 32 undefined 66 66 N 17 28 30.06 1018 10 16 N/A
8:16 am 08:16 Mostly Cloudy 41 5 32 undefined 70 70 N 22 35 30.09 1019 10 16 N/A
8:36 am 08:36 Partly Cloudy 41 5 32 undefined 70 70 N 21 33 30.09 1019 10 16 N/A
8:55 am 08:55 Partly Cloudy 41 5 32 undefined 70 70 N 21 33 30.12 1020 10 16 N/A
9:16 am 09:16 Mostly Cloudy 43 6 32 undefined 66 66 N 22 35 30.12 1020 10 16 N/A
9:35 am 09:35 Mostly Cloudy 43 6 32 undefined 66 66 N 25 41 30.15 1021 10 16 N/A
9:56 am 09:56 Cloudy 43 6 30 -1 61 61 N 22 35 30.15 1021 10 16 N/A
10:16 am 10:16 Mostly Cloudy 43 6 30 -1 61 61 N 21 33 30.18 1022 10 16 N/A
10:35 am 10:35 Sunny 45 7 27 -3 49 49 N 21 33 30.18 1022 10 16 N/A
10:56 am 10:56 Partly Cloudy 45 7 27 -3 49 49 N 21 33 30.21 1023 10 16 N/A
11:16 am 11:16 Partly Cloudy 45 7 23 -5 42 42 N 23 37 30.21 1023 10 16 N/A
11:36 am 11:36 Sunny 46 8 25 -4 43 43 N 20 31 30.21 1023 10 16 N/A
11:55 am 11:55 Sunny 46 8 25 -4 43 43 N 21 33 30.21 1023 10 16 N/A
12:15 pm 12:15 Sunny 46 8 19 -7 34 34 N 21 33 30.21 1023 10 16 N/A
12:36 pm 12:36 Sunny 46 8 21 -6 37 37 N 21 33 30.21 1023 10 16 N/A
12:55 pm 12:55 Sunny 48 9 19 -7 32 32 N 23 37 30.21 1023 10 16 N/A
1:16 pm 13:16 Sunny 48 9 18 -8 29 29 N 18 30 30.21 1023 10 16 N/A
1:35 pm 13:35 Sunny 48 9 23 -5 37 37 N 16 26 30.21 1023 10 16 N/A
1:56 pm 13:56 Sunny 48 9 21 -6 34 34 N 20 31 30.24 1024 10 16 N/A
2:16 pm 14:16 Sunny 48 9 19 -7 32 32 N 14 22 30.24 1024 10 16 N/A
2:35 pm 14:35 Sunny 48 9 21 -6 34 34 N 16 26 30.21 1023 10 16 N/A
2:56 pm 14:56 Sunny 48 9 18 -8 29 29 N 16 26 30.24 1024 10 16 N/A
3:15 pm 15:15 Sunny 46 8 16 -9 29 29 N 17 28 30.24 1024 10 16 N/A
3:35 pm 15:35 Sunny 46 8 14 -10 27 27 NNW 17 28 30.24 1024 10 16 N/A
3:56 pm 15:56 Sunny 48 9 14 -10 25 25 N 13 20 30.24 1024 10 16 N/A
4:15 pm 16:15 Sunny 48 9 12 -11 23 23 N 16 26 30.24 1024 10 16 N/A
4:35 pm 16:35 Sunny 48 9 10 -12 21 21 N 15 24 30.24 1024 10 16 N/A
4:56 pm 16:56 Sunny 48 9 9 -13 20 20 N 16 26 30.24 1024 10 16 N/A
5:15 pm 17:15 Sunny 48 9 12 -11 23 23 N 15 24 30.24 1024 10 16 N/A
5:36 pm 17:36 Sunny 48 9 10 -12 21 21 N 14 22 30.24 1024 10 16 N/A
5:56 pm 17:56 Sunny 46 8 10 -12 23 23 N 20 31 30.24 1024 10 16 N/A
6:15 pm 18:15 Sunny 46 8 7 -14 20 20 N 17 28 30.24 1024 10 16 N/A
6:36 pm 18:36 Sunny 45 7 9 -13 23 23 N 16 26 30.24 1024 10 16 N/A
6:56 pm 18:56 Sunny 45 7 7 -14 21 21 NNW 17 28 30.27 1025 10 16 N/A
7:15 pm 19:15 Sunny 43 6 9 -13 24 24 N 18 30 30.27 1025 10 16 N/A
7:36 pm 19:36 Sunny 41 5 9 -13 26 26 N 15 24 30.30 1026 10 16 N/A
7:55 pm 19:55 Clear 39 4 10 -12 30 30 N 14 22 30.30 1026 10 16 N/A
8:16 pm 20:16 Clear 37 3 12 -11 35 35 N 17 28 30.33 1027 10 16 N/A
8:36 pm 20:36 Clear 37 3 12 -11 35 35 NNW 12 19 30.33 1027 10 16 N/A
8:55 pm 20:55 Clear 36 2 9 -13 32 32 N 13 20 30.33 1027 10 16 N/A
9:16 pm 21:16 Clear 36 2 9 -13 32 32 N 12 19 30.33 1027 10 16 N/A
9:36 pm 21:36 Clear 34 1 7 -14 32 32 N 10 17 30.36 1028 10 16 N/A
9:55 pm 21:55 Clear 32 undefined 9 -13 37 37 N 9 15 30.36 1028 10 16 N/A
10:16 pm 22:16 Clear 32 undefined 10 -12 40 40 N 6 9 30.36 1028 10 16 N/A
10:36 pm 22:36 Clear 30 -1 12 -11 47 47 N 7 11 30.36 1028 10 16 N/A
10:55 pm 22:55 Clear 30 -1 12 -11 47 47 N 6 9 30.36 1028 10 16 N/A
11:16 pm 23:16 Clear 30 -1 12 -11 47 47 N 6 9 30.36 1028 10 16 N/A
11:36 pm 23:36 Clear 28 -2 12 -11 51 51 N N/A 30.36 1028 10 16 N/A
11:55 pm 23:55 Clear 28 -2 18 -8 64 64 N N/A 30.36 1028 10 16 N/A

Powered by AerisWeather